Location: Fennell Observatory
(35.2597°N, 89.5125°W)
Time: 05:39:16
(UTC-05:00)

Daily predictions for brighter satellites

Satellite Brightness Start Highest point End
(mag) Time Altitude Azimuth Time Altitude Azimuth Time Altitude Azimuth
S3M 4.4 00:04:42 10° N 00:10:04 55° NE 00:10:04 55° NE
NOSS 3-2 (C) 3.6 00:11:29 72° NNW 00:11:29 72° NNW 00:17:35 10° NNE
Cosmos 2221 4.4 00:09:12 10° N 00:11:18 28° NNW 00:11:18 28° NNW
H-2A R/B 4.2 00:16:38 15° W 00:16:38 15° W 00:18:52 10° NW
Cosmos 1655 Rocket 4.2 00:20:20 63° WNW 00:20:20 63° WNW 00:26:09 10° N
Timation 2 Rocket 4.2 00:23:48 78° NNE 00:23:48 78° NNE 00:30:08 10° NNE
Cosmos 2278 4.3 00:23:46 10° NNW 00:28:14 52° NNE 00:28:14 52° NNE
CZ-4C R/B 3.1 00:30:35 43° NW 00:30:35 43° NW 00:36:01 10° NNE
Cosmos 2082 Rocket 3.0 00:45:38 45° NE 00:45:38 45° NE 00:49:31 10° NNE
Cosmos 1697 Rocket 4.2 00:40:18 10° N 00:45:09 28° ENE 00:45:14 28° ENE
Cosmos 1833 Rocket 3.7 00:50:35 40° NE 00:50:35 40° NE 00:54:17 10° NNE
Lacrosse 5 3.6 01:03:32 10° NNW 01:07:52 28° NE 01:08:18 27° NE
Cosmos 1656 4.4 01:03:00 10° NNW 01:07:36 51° NNE 01:07:36 51° NNE
CZ-2C R/B 3.3 01:16:10 10° N 01:20:21 53° N 01:20:21 53° N
Cosmos 2322 Rocket 4.3 01:36:41 10° N 01:40:45 20° ENE 01:43:42 14° E
CENTAUR R/B 2.7 01:50:52 61° NW 01:50:52 61° NW 01:57:25 10° NNE
Aureole 1 Rocket 4.1 01:46:46 10° NNW 01:50:43 58° NNW 01:50:43 58° NNW
Cosmos 2315 Rocket 4.4 01:46:21 10° NNW 01:51:39 54° WNW 01:51:39 54° WNW
Cosmos 1745 Rocket 4.1 01:54:49 66° E 01:54:49 66° E 02:00:59 10° NNE
Cosmos 968 Rocket 4.3 01:59:41 47° NE 01:59:41 47° NE 02:03:30 10° NNE
Nadezhda 1 Rocket 4.3 01:58:04 10° N 02:04:03 54° E 02:04:27 53° E
Cosmos 1980 Rocket 2.4 02:04:04 10° NNW 02:08:46 63° NNW 02:08:46 63° NNW
ASTEX 1 4.3 02:06:25 10° N 02:09:56 43° NNW 02:09:56 43° NNW
Meteor 1-11 4.4 02:13:06 69° NNW 02:13:06 69° NNW 02:18:21 10° N
CZ-2C R/B 4.2 02:21:10 37° WNW 02:21:10 37° WNW 02:25:09 10° NNW
IRAS Rocket 4.3 02:14:54 10° NNE 02:20:01 69° ENE 02:20:01 69° ENE
Lacrosse 5 rocket 3.1 02:19:52 10° NNW 02:23:50 32° NE 02:25:32 25° E
CZ-3 Stage 3 3.8 01:56:37 10° WSW 02:25:42 62° S 02:30:22 10° E
Cosmos 2082 Rocket 4.3 02:27:27 14° WNW 02:28:34 14° NW 02:31:34 10° NNW
Cosmos 1697 Rocket 4.1 02:24:01 10° NW 02:26:56 26° WNW 02:26:56 26° WNW
Cosmos 1538 Rocket 4.1 02:27:22 10° NNW 02:32:03 72° N 02:32:03 72° N
ATLAS 5 CENTAUR R/B 2.4 02:37:19 49° E 02:37:19 49° E 02:41:38 10° NE
Cosmos 1726 4.5 02:33:13 10° NNW 02:34:22 19° NNW 02:34:22 19° NNW
Cosmos 1777 Rocket 4.0 02:41:52 78° NNW 02:41:52 78° NNW 02:46:54 10° NNE
Cosmos 1455 3.6 02:41:48 10° N 02:44:25 36° NE 02:44:25 36° NE
Cosmos 773 Rocket 4.2 02:41:41 10° N 02:46:47 63° ENE 02:47:30 56° ESE
Resurs 1-4 Rocket 4.2 02:43:18 10° NE 02:46:59 19° E 02:49:24 14° SE
Lacrosse 5 3.8 02:46:08 10° NW 02:47:25 17° WNW 02:47:25 17° WNW
IRS-P3 4.1 02:47:04 10° N 02:52:23 70° WNW 02:52:27 70° W
Cosmos 371 Rocket 4.1 02:49:06 10° NNW 02:52:28 41° NW 02:52:28 41° NW
Cosmos 1626 3.3 02:56:33 41° N 02:56:33 41° N 02:59:05 10° N
CBERS-1 3.8 02:51:40 10° NNE 02:56:48 88° ESE 02:57:01 83° S
Cosmos 1833 4.4 02:57:55 53° SSE 02:58:52 61° ESE 03:04:31 10° NNE
ARIANE 5 R/B 3.5 02:59:19 10° NNE 03:04:01 38° E 03:05:28 31° SE
OAO 3 Rocket 3.1 03:08:11 73° ESE 03:08:11 73° ESE 03:12:25 10° E
USA 215 3.4 03:02:39 10° NE 03:09:06 65° NW 03:11:25 41° WSW
Cosmos 2181 Rocket 3.9 03:02:54 10° N 03:09:06 82° E 03:11:26 42° SSE
SL-16 R/B 2.1 03:08:40 10° NNW 03:14:20 71° WSW 03:15:18 58° SSW
ADEOS 3.5 03:15:49 10° N 03:21:03 77° WNW 03:22:03 58° SW
AQUA 4.2 03:19:50 10° N 03:24:22 45° WNW 03:24:37 44° W
Cosmos 2322 Rocket 2.3 03:19:39 10° NNW 03:25:05 51° WSW 03:25:26 50° WSW
Okean 1-7 4.3 03:21:58 10° N 03:26:03 37° E 03:28:49 18° SE
Cosmos 1869 3.9 03:24:33 10° NNW 03:27:40 44° NW 03:27:40 44° NW
Cosmos 2150 Rocket 4.4 03:29:36 36° SSE 03:31:34 60° ESE 03:36:51 10° NNE
USA 161 4.1 03:34:44 13° NNW 03:34:44 13° NNW 03:35:03 10° NNW
Cosmos 2074 Rocket 4.0 03:29:54 32° S 03:32:59 78° E 03:39:14 10° N
ISS -2.4 03:31:25 10° NW 03:34:36 49° NE 03:37:46 10° ESE
SEDSat Delta rocket 4.1 03:35:05 36° WSW 03:37:33 54° SSW 03:44:05 10° ESE
Cosmos 2112 Rocket 3.8 03:34:44 10° NNW 03:39:56 79° WSW 03:42:37 29° S
Cosmos 2184 Rocket 4.0 03:36:51 30° S 03:40:15 85° E 03:46:37 10° N
CZ-2D R/B 2.4 03:35:56 10° NNE 03:41:09 62° ESE 03:44:01 27° S
EO 1 Del DPAF 3.3 03:44:32 39° SSE 03:45:55 82° ENE 03:49:50 10° N
Cosmos 2327 Rocket 4.4 03:42:56 32° S 03:46:00 83° W 03:52:14 10° N
SL-16 R/B 2.7 03:40:38 10° SSE 03:46:51 76° ENE 03:53:08 10° N
Cosmos 2360 Rocket 2.1 03:48:50 10° NNW 03:54:30 87° WSW 04:00:08 10° SSE
Okean O Rocket 3.0 03:51:24 10° NNE 03:55:27 35° E 03:59:00 13° SSE
Cosmos 2227 Rocket 4.2 03:51:18 10° SSE 03:55:33 22° E 03:59:49 10° NE
In-Cosmos 22 Rocket 4.2 03:53:24 24° S 03:56:42 76° E 04:02:05 10° NNE
Lacrosse 5 rocket 3.0 03:59:11 10° WNW 04:01:02 21° W 04:01:02 21° W
OAO 1 4.5 04:00:40 24° W 04:04:06 88° S 04:09:38 10° E
Cosmos 1933 3.9 04:01:37 10° NNW 04:05:19 36° W 04:05:48 35° WSW
CZ-4B R/B 4.3 04:02:07 10° NNE 04:07:20 43° E 04:12:36 10° S
Cosmos 2219 3.4 04:07:10 28° SW 04:10:11 61° WNW 04:15:53 10° NNE
ATLAS CENTAUR R/B 2.3 04:05:46 10° NNW 04:10:17 53° ENE 04:14:24 10° SE
USA 229 DEB 3.9 04:07:20 25° SW 04:11:30 64° NW 04:18:27 10° NNE
Cosmos 1869 Rocket 4.4 04:10:27 28° WSW 04:11:35 33° WNW 04:15:36 10° NNW
USA 229 3.9 04:07:25 25° SW 04:11:37 65° WNW 04:18:34 10° NNE
ATLAS 2A CENTAUR R/B 4.0 04:07:38 24° SW 04:13:01 55° SSE 05:02:47 10° E
Cosmos 2298 Rocket 4.5 04:11:20 27° SW 04:13:52 46° WNW 04:19:00 10° N
Cosmos 2322 3.7 04:09:08 10° NNW 04:14:46 58° WSW 04:20:20 10° S
Cosmos 2221 Rocket 4.4 04:12:18 10° NNW 04:16:19 32° W 04:17:43 26° SW
CZ-4B R/B 4.5 04:12:37 10° NNE 04:16:24 34° E 04:20:19 10° SSE
Cosmos 990 Rocket 4.1 04:12:47 18° S 04:16:37 74° ESE 04:21:45 10° NNE
GPS 2-05 Rocket1 2.6 04:15:08 28° W 04:16:44 88° N 04:20:08 10° E
Meteor 1-26 Rocket 4.2 04:12:33 10° NNW 04:18:01 62° W 04:23:12 11° S
H-2A R/B 3.9 04:13:41 15° W 04:18:51 69° S 05:03:10 10° ESE
ATLAS 5 CENTAUR R/B 3.8 04:18:52 12° W 04:21:44 19° NW 04:25:26 10° N
CZ-2D R/B 3.3 04:20:13 10° N 04:24:21 82° W 04:27:15 18° SSW
DELTA 2 R/B (1) 4.1 04:22:36 21° SSW 04:26:00 46° SSE 04:31:21 10° ENE
MTI 4.2 04:25:02 25° SSW 04:26:36 44° W 04:29:50 10° NNW
Resurs 1-4 Rocket 2.6 04:21:56 10° N 04:26:59 46° WNW 04:30:29 19° SW
Cosmos 2297 Rocket 3.9 04:23:28 10° SSE 04:28:17 30° ESE 04:33:08 10° NE
NOSS 3-1 (A) 4.2 04:26:36 10° S 04:32:05 45° ESE 04:38:01 10° NE
Cosmos 1340 Rocket 3.4 04:28:35 10° S 04:32:32 57° E 04:36:29 10° NNE
GOES 2 Rocket 4.0 04:30:14 21° SW 04:32:33 32° S 04:36:21 10° ESE
Cosmos 2333 Rocket 4.0 04:31:21 10° N 04:36:35 36° ENE 04:41:48 10° SE
Cosmos 220 Rocket 4.0 04:34:48 17° SSW 04:37:57 68° WNW 04:42:14 10° NNE
MOZ.5/SAFIR/RUBIN 5/SL-8 4.4 04:33:22 10° SSE 04:37:58 59° ENE 04:42:36 10° N
Cosmos 2082 4.3 04:34:35 10° S 04:40:07 56° ESE 04:45:44 10° NNE
Cosmos 1892 2.8 04:37:38 15° SSW 04:40:46 60° W 04:44:36 10° N
Cosmos 1733 Rocket 3.1 04:38:50 13° SSW 04:42:35 59° W 04:46:55 10° N
ARIANE 5 R/B 4.0 04:39:05 10° NNW 04:42:52 21° WNW 04:45:49 13° WSW
Coronas F rocket 1.6 04:42:47 10° S 04:45:29 67° E 04:48:12 10° NNE
COSMOS 2428 2.7 04:41:34 10° NNW 04:47:11 65° WSW 04:52:47 10° S
PAYLOAD B 4.2 04:41:43 10° N 04:47:14 79° WNW 04:52:46 10° SSW
Thor Agena Rocket 3.6 04:42:46 10° SSE 04:48:04 84° WSW 04:53:23 10° NNW
OAO 3 Rocket 3.4 04:46:37 10° W 04:51:07 48° SSW 04:55:39 10° SE
Iridium 4 Rocket 3.8 04:48:35 10° N 04:52:44 53° E 04:56:46 10° SSE
Cosmos 2341 Rocket 4.1 04:48:30 10° SSW 04:54:42 61° W 05:01:00 10° N
CZ-2C R/B 3.9 04:51:23 10° S 04:55:41 49° W 05:00:07 10° NNW
BREEZE-M DEB (TANK) 3.9 04:47:55 11° WSW 04:57:53 45° NW 05:01:15 10° NE
Cosmos 1125 Rocket 3.7 04:52:52 10° S 04:58:07 76° ESE 05:03:25 10° NNE
UNKNOWN OBJECT B 4.4 04:56:33 10° NNW 04:59:21 20° WNW 05:02:04 11° WSW
Cosmos 389 Rocket 3.4 04:57:05 10° NNW 05:00:25 32° W 05:03:43 10° SSW
Cosmos 2237 Rocket 3.2 04:56:18 10° N 05:01:51 51° ENE 05:07:23 10° SE
Cosmos 292 Rocket 4.1 04:57:19 10° NNW 05:01:53 44° WSW 05:06:23 10° S
AVUM R/B 4.2 05:03:06 12° W 05:04:17 17° WNW 05:05:46 10° NNW
NOSS 0 Rocket 4.2 04:59:17 10° NNW 05:05:28 76° ENE 05:11:36 10° SSE
Sich 1 Rocket 3.7 05:01:12 10° SSW 05:05:30 55° W 05:09:49 10° N
SME Rocket 4.4 04:59:03 10° S 05:05:40 40° WSW 05:10:18 10° NW
ASTRO E2 4.3 05:02:26 10° SW 05:05:41 23° SSE 05:08:54 10° ESE
Nadezhda 3 Rocket 4.3 05:01:14 10° NNW 05:07:02 45° W 05:12:50 10° SSW
ISS -1.4 05:09:17 10° W 05:10:42 12° SW 05:12:06 10° SSW
SL-8 Rocket 4.0 05:05:03 10° S 05:11:14 79° W 05:17:32 10° N
Cosmos 1378 Rocket 3.9 05:07:14 10° N 05:11:42 75° E 05:16:07 10° SSE
Cosmos 2219 Rocket 2.2 05:10:04 10° NNW 05:15:41 78° WSW 05:21:14 10° SSE
Cosmos 2366 rocket 4.1 05:11:10 10° S 05:17:22 83° E 05:23:32 10° N
Cosmos 1269 Rocket 4.4 05:13:01 10° NNW 05:18:21 74° ENE 05:23:37 10° SSE
SL-08 R/B 4.5 05:12:39 10° S 05:18:48 85° W 05:24:56 10° N
Cosmos 1975 Rocket 3.9 05:14:27 10° N 05:18:52 58° E 05:23:15 10° SSE
Cosmos 1908 Rocket 3.8 05:14:49 10° SSW 05:19:07 52° W 05:23:25 10° N
CZ-2D R/B 4.0 05:17:52 10° NNW 05:20:40 15° WNW 05:23:29 10° W
Meteor PRIRODA 4.2 05:17:01 10° NNE 05:20:46 62° E 05:24:28 10° S
Okean 3 3.9 05:17:05 10° N 05:21:16 68° E 05:25:29 10° SSE
